www.pogodaiklimat.ru

Погода и климат >> Архив погоды >> Россия >> Камчатский край >> Большерецк


ПОГОДА в Большерецке

  • Прогноз погоды в Большерецке
  • Монитор погоды в Большерецке

АРХИВ ПОГОДЫ в Большерецке

Время (UTC), дата Ветер
(напр.,м/с)
 
Видим.   Явления Облачность Т
(С)
Тd
(С)
f
(%)
Тe
(С)
Тes
(С)
Комфортность P
(гПа)
Po
(гПа)
Тmin
(С)
Tmax
(С)
R
(мм)
R24
(мм)
S
(см)
12 12.06 З 2 20 км 9/9 600 м
[Sc]
+6.3 +6.3 100 +4 +4 1020.1 1016.4
15 12.06 З 2 20 км 10/10 600 м
[Sc]
+6.1 +6.1 100 +3 +3 1020.0 1016.3
18 12.06 СЗ 1 20 км 10/10 600 м
[Sc]
+6.0 +6.0 100 +5 +5 1019.5 1015.8
21 12.06 С 1 20 км 9/9 600 м
[Sc]
+7.8 +6.1 89 +7 +8 1019.2 1015.5 +5.7
00 13.06 З 3 50 км 10/10 600 м
[Sc]
+9.7 +6.3 79 +7 +7 1018.4 1014.7
03 13.06 СЗ 4 50 км 9/9 600 м
[Cu Sc]
+10.3 +6.8 79 +8 +9 1017.4 1013.7
06 13.06 СЗ 5 20 км 10/6 600 м
[Sc Cs]
+10.2 +6.5 78 +7 +8 1016.5 1012.8
09 13.06 СЗ 3 20 км 10/8 600 м
[Sc Ac und]
+8.2 +7.6 96 +5 +5 1016.3 1012.6 +10.8
12 13.06 З 1 20 км 10/8 600 м
[Sc Ac und]
+7.0 +7.0 100 +6 +6 1016.4 1012.7
15 13.06 З 2 20 км 10/10 600 м
[Sc]
+7.3 +7.3 100 +5 +5 1016.2 1012.5
18 13.06 З 2 20 км 10/10 300 м
[St]
+6.9 +6.9 100 +4 +4 1016.7 1013.0
21 13.06 З 2 20 км 10/10 300 м
[St]
+7.7 +7.3 97 +5 +5 1017.4 1013.7 +6.8
00 14.06 З 2 20 км 9/9 600 м
[Sc]
+8.6 +7.0 90 +7 +8 1017.7 1014.0
03 14.06 З 4 20 км 9/9 600 м
[Sc]
+9.9 +6.3 78 +7 +8 1018.1 1014.4
06 14.06 З 4 20 км 9/9 600 м
[Sc]
+8.2 +5.7 84 +5 +5 1018.2 1014.5
09 14.06 СЗ 2 20 км 10/10 600 м
[Sc]
+7.3 +5.8 90 +5 +5 1019.6 1015.9 +10.1
12 14.06 З 1 20 км 10/10 600 м
[Sc]
+6.8 +6.5 98 +6 +6 1020.4 1016.7
15 14.06 ЮЗ 1 20 км 10/10 300 м
[St]
+6.6 +6.6 100 +5 +5 1021.1 1017.4
18 14.06 З 2 20 км 10/10 300 м
[St]
+6.2 +6.2 100 +4 +4 1021.4 1017.7
21 14.06 З 1 20 км 10/10 300 м
[St]
+7.5 +6.0 90 +7 +7 1021.8 1018.1 +6.2
00 15.06 ЮЗ 2 20 км 10/10 300 м
[St]
+8.4 +5.7 83 +7 +7 1022.2 1018.5
03 15.06 ЮЗ 2 20 км 10/10 300 м
[St]
+9.1 +5.6 79 +7 +7 1022.3 1018.7
06 15.06 ЮЗ 3 50 км 10/10 600 м
[Sc]
+8.8 +4.9 76 +6 +6 1022.6 1018.9
09 15.06 ЮЗ 1 20 км 10/4 600 м
[Sc Ac und]
+7.4 +4.5 82 +7 +7 1022.9 1019.1 +10.6
12 15.06 В 2 20 км 9/4 600 м
[Sc Ac trans]
+4.1 +4.1 100 +1 +1 1022.9 1019.2
15 15.06 Ю 3 20 км 9/6 600 м
[Sc Ac trans]
+6.4 +6.1 98 +3 +3 1022.6 1018.8
18 15.06 Ю 3 50 км 9/6 600 м
[Sc Ac trans]
+7.1 +6.7 97 +4 +4 1022.5 1018.8
21 15.06 ЮВ 4 10 км слаб. ливневой дождь 10/10 300 м
[Cb cap]
+7.5 +7.3 99 +4 +4 1023.2 1019.4 +3.9 2
00 16.06 Ю 4 20 км в посл. час ливневой дождь 10/10 600 м
[Cb cap]
+9.0 +8.4 96 +6 +6 1023.4 1019.7
03 16.06 Ю 6-10
{10}
10 км слаб. ливневой дождь 10/10 300 м
[Cb cap]
+8.0 +8.0 100 +4 +4 1024.4 1020.7
06 16.06 Ю 5
{10}
10 км слаб. ливневой дождь 10/10 300 м
[Cb cap]
+8.0 +8.0 100 +4 +4 1024.2 1020.5
09 16.06 ЮЗ 1 10 км слаб. ливневой дождь 10/10 300 м
[Cb cap]
+7.1 +7.1 100 +6 +6 1022.8 1019.1 +9.3 4
12 16.06 Ю 3 10 км слаб. ливневой дождь 10/10 300 м
[Cb cap]
+6.2 +6.2 100 +3 +3 1022.1 1018.4
15 16.06 Ю 4 н/о {ливн. осадки} н/о +6.7 +6.7 100 +3 +3 1020.5 1016.8
18 16.06 ЮВ 3 10 км слаб. ливневой дождь 10/10 300 м
[Cb cap]
+6.8 +6.5 98 +4 +4 1018.4 1014.7
21 16.06 ЮВ 5 50 км слаб. ливневой дождь 9/8 600 м
[Cb cap Ac trans]
+7.5 +4.6 82 +4 +4 1016.5 1012.8 +6.1 5
00 17.06 ЮВ 3 20 км слаб. ливневой дождь 10/10 600 м
[Cb cap]
+8.3 +5.3 81 +6 +6 1014.4 1010.7
03 17.06 В 4 20 км слаб. ливневой дождь 10/10 600 м
[Cb cap]
+8.5 +6.9 90 +5 +5 1010.7 1007.0
06 17.06 В 9-10
{15}
50 км в посл. час ливневой дождь 9/9 600 м
[Cb cap]
+9.5 +4.6 71 +5 +5 1007.8 1004.2
09 17.06 В 8-10
{17}
50 км 9/9 600 м
[Cb cap]
+9.6 +3.5 66 +6 +6 1005.8 1002.2 +10.7 6
12 17.06 В 8-10
{15}
20 км слаб. ливневой дождь 9/9 600 м
[Cb cap]
+7.3 +4.4 82 +2 +2 1003.1 999.5
15 17.06 ЮВ 6-10
{18}
20 км слаб. ливневой дождь 9/9 600 м
[Cb cap]
+8.0 +4.1 76 +4 +4 1001.0 997.3
18 17.06 В 9-10
{16}
50 км {ливн. осадки} 8/8 600 м
[Cb cap]
+9.0 +3.7 69 +5 +5 999.6 996.0
21 17.06 В 10-11
{20}
20 км 9/6 600 м
[Cb calv Ac trans]
+10.1 +4.2 67 +6 +6 998.7 995.1 +7.2 2
00 18.06 В 12-20
{21}
50 км 10/6 600 м
[Cb cap Ac und]
+9.2 +5.4 77 +4 +4 998.3 994.7
03 18.06 В 10-17
{20}
50 км слаб. ливневой дождь 10/6 600 м
[Cb cap Ac und]
+11.7 +5.5 66 +8 +8 997.1 993.6
06 18.06 В 8-13
{18}
50 км {ливн. осадки} 9/6 600 м
[Cb cap Ac trans]
+12.9 +5.8 62 +10 +10 996.7 993.2
09 18.06 В 6-10
{16}
50 км 9/6 600 м
[Cb calv Ac trans]
+11.0 +4.9 66 +8 +8 997.4 993.9 +13.6 0.5
12 18.06 ЮЗ 2
{12}
20 км 9/6 600 м
[Sc]
+6.3 +6.1 99 +4 +4 1000.6 997.0
15 18.06 Ю 4 20 км слаб. ливневой дождь 10/10 600 м
[Cb cap]
+4.8 +4.8 100 0 0 1002.4 998.8
18 18.06 Ю 5 20 км слаб. ливневой дождь 9/9 600 м
[Cb cap]
+4.5 +4.4 99 -1 -1 1004.4 1000.7
21 18.06 ЮВ 6-10
{11}
20 км слаб. ливневой дождь 10/10 600 м
[Cb cap]
+5.7 +5.1 96 +1 +1 1005.1 1001.4 +4.4 3
00 19.06 Ю 8-13
{15}
20 км слаб. ливневой дождь 10/10 600 м
[Cb cap]
+6.2 +5.2 93 +1 +1 1006.2 1002.5
03 19.06 Ю 6-11
{14}
20 км слаб. ливневой дождь 10/10 600 м
[Cb cap]
+6.5 +6.3 99 +2 +2 1006.4 1002.8
06 19.06 Ю 5-11
{14}
20 км слаб. ливневой дождь 10/10 600 м
[Cb cap]
+6.6 +6.4 99 +2 +2 1006.7 1003.0
09 19.06 Ю 7-12
{12}
10 км ливневой дождь 10/10 300 м
[Cb cap]
+6.1 +6.1 100 +1 +1 1006.7 1003.0 +7.3 10

 

Местоположение метеостанции Большерецк (Камчатский край, Россия): широта 52.83 долгота 156.30 высота над уровнем моря 30 м.

В архиве по умолчанию представлена погода в Большерецке за последнюю неделю. Архивные данные за месяц целиком и за предыдущие месяцы, начиная с января 2011 года, Вы можете получить, выбрав интересующий диапазон дат из раскрывающегося списка и нажав кнопку "Ввод!".


*Определитесь, кто Вы:
робот инопланетянин человек

Внимание! Время в таблицах - всемирное. Для получения местного времени необходимо прибавить поправку, которая равна 12 ч.

Смотрите также архив погоды в соседних городах и на ближайших метеорологических станциях:

Погода в Начиках (Камчатский край, Россия) (99 км)
Погода в Сосновке (Камчатский край, Россия) (137 км)
Погода в Петропавловск-Камч. 2 (Камчатский край, Россия) (150 км)
Погода в Озерной (Камчатский край, Россия) (150 км)
Погода в Петропавловск-Камчатском (Камчатский край, Россия) (155 км)
Погода в Водопадной (Камчатский край, Россия) (161 км)
Погода в Петропавловском Маяке (Камчатский край, Россия) (161 км)
Погода в Соболево (Камчатский край, Россия) (166 км)
Погода в Пущино (Камчатский край, Россия) (188 км)
Погода на Мысе Лопатка (Камчатский край, Россия) (219 км)

Пояснения к столбцам:

Ветер - указаны скорость ветра в м/с - средняя за 10 мин, порывы в срок и между сроками (в фигурных скобках) и направление, откуда дует ветер: С - северный, СВ - северо-восточный, В - восточный, ЮВ - юго-восточный, Ю - южный, ЮЗ - юго-западный, З - западный, СЗ - северо-западный.
Видимость - горизонтальная дальность видимости в метрах или километрах. При видимости от 1 до 10 км при отсутствии осадков обычно наблюдается дымка, при ухудшении видимости до 1 км и менее - туман. В сухую погоду видимость может ухудшаться дымом, пылью или мглою.
Явления - указаны атмосферные явления, наблюдавшиеся в срок или в последний час перед сроком; фигурными скобками обозначены явления, наблюдавшиеся между сроками (за 1-3 часа до срока); квадратными скобками обозначены град или гололедные отложения с указанием их диаметра в мм.
Облачность - указаны через наклонную черту общая и нижняя облачность в баллах и высота нижней границы облаков в метрах; квадратными скобками обозначены формы облаков: Ci - перистые, Cs - перисто-слоистые, Cc - перисто-кучевые, Ac - высококучевые, As - высокослоистые, Sc - слоисто-кучевые, Ns - слоисто-дождевые, Cu - кучевые, Cb - кучево-дождевые. Подробнее классификацию облаков см. в Атласе облаков (PDF).
T - Температура воздуха - температура, измеренная на высоте 2 м над землей.
Td - Температура точки росы - температура, при понижении до которой содержащийся в воздухе водяной пар достигнет насыщения.
f - Относительная влажность воздуха - влажноcть воздуха, измеренная на высоте 2 м над землей.
Te - Эффективная температура - температура, которую ощущает одетый по сезону человек в тени. Характеристика душности погоды. При расчете учитывается влияние влажности воздуха и скорости ветра на теплоощущения человека.
Tes - Эффективная температура на солнце - температура, которую ощущает человек, с поправкой на солнечный нагрев. Характеристика знойности погоды. Зависит от высоты солнца над горизонтом, облачности и скорости ветра. Ночью, в пасмурную погоду, а также при ветре 12 м/с и более поправка равна нулю.
P - Атмосферное давление - приведенное к уровню моря атмосферное давление.
Po - Атмосферное давление - измеренное на уровне метеостанции атмосферное давление.
Tmin - Минимальная температура - минимум температуры воздуха на высоте 2 м над землей.
Tmax - Максимальная температура - максимум температуры воздуха на высоте 2 м над землей.
R - Количество осадков - Количество выпавших осадков за период времени, мм. При наведении курсора мыши на число - период времени, за который выпало указанное количество осадков.
R24 - Количество осадков - Количество выпавших осадков за 24 часа, мм.
S - Снежный покров - Высота снежного покрова, см. При наведении курсора мыши на число - состояние снежного покрова и степень покрытия местности в баллах.